Back to catalog

THOR ABLESTAR DEB

AliveLEO
NORAD 405·DEBRIS·🇺🇸 United States

Launched Jun 29, 1961 from Cape Canaveral Space Force Station

Loading…

Next Passes (next 24 hours)

TLE

FreshSource: Space-Track

Epoch: Sep 10, 2026, 13:14 UTC

1   405U 61015EE  26253.55185384  .00000170  00000-0  28258-3 0  9995
2   405  66.8948 323.3906 0080185 124.3193 355.4458 13.66728092243819

Track THOR ABLESTAR DEB in real time with AllMySat

Download on the App Store